Weather History for Goshen, IN

Change the Weather History Date:

Tuesday, March 5, 2013

  Actual Average Record
Temperature  
Mean Temperature 30 °F -  
Max Temperature 33 °F 43 °F 74 °F (1983)
Min Temperature 27 °F 27 °F -6 °F (1978)
Degree Days  
Heating Degree Days 34    
Moisture  
Dew Point 25 °F    
Average Humidity 83    
Maximum Humidity 93    
Minimum Humidity 64    
Precipitation  
Precipitation 0.20 in - - ()
Sea Level Pressure  
Sea Level Pressure 29.83 in    
Wind  
Wind Speed 13 mph (ENE)    
Max Wind Speed 22 mph    
Max Gust Speed 31 mph    
Visibility 2 miles    
Events Fog , Snow    
Averages and records for this station are not official NWS values.
T = Trace of Precipitation, MM = Missing Value Source: NWS Daily Summary

Daily Weather History Graph

Daily Weather History Graph

Search for Another Location

Airport:

Trip Planner

Search our weather history database for the weather conditions in past years. The results will help you decide how hot, cold, wet, or windy it might be!

Date:

Astronomy

Mar. 05, 2013 Rise Set
Actual Time 7:11 AM EST 6:38 PM EST
Civil Twilight 6:43 AM EST 7:06 PM EST
Nautical Twilight 6:11 AM EST 7:38 PM EST
Astronomical Twilight 5:39 AM EST 8:10 PM EST
Moon 2:25 AM EST (3/5) 12:13 PM EST (3/5)
Length of Visible Light 12h 23m
Length of Day
11h 27m
Last Quarter, 41% of the Moon is Illuminated
Mar 5
Last Quarter
Mar 11
New
Mar 19
First Quarter
Mar 27
Full
Apr 3
Last Quarter

Hourly Weather History & Observations

Time (EST) Temp. Windchill Dew Point Humidity Pressure Visibility Wind Dir Wind Speed Gust Speed Precip Events Conditions
12:33 AM 30.2 °F 25.4 °F 24.8 °F 80% 30.05 in 2.0 mi SE 4.6 mph - 0.00 in Snow Light Snow
12:53 AM 30.9 °F 23.5 °F 25.0 °F 79% 30.06 in 7.0 mi East 8.1 mph - 0.00 in Snow Light Snow
2:39 AM 30.2 °F 20.8 °F 23.0 °F 75% 30.00 in 8.0 mi East 11.5 mph - 0.00 in Snow Light Snow
2:53 AM 30.9 °F 22.8 °F 23.0 °F 72% 30.02 in 10.0 mi ENE 9.2 mph - 0.00 in   Overcast
4:53 AM 30.0 °F 20.5 °F 21.0 °F 69% 29.98 in 10.0 mi East 11.5 mph - N/A   Clear
5:53 AM 32.0 °F 22.5 °F 23.0 °F 69% 29.97 in 10.0 mi East 12.7 mph - N/A   Overcast
6:53 AM 32.0 °F 22.1 °F 23.0 °F 69% 29.96 in 10.0 mi East 13.8 mph - N/A   Overcast
8:53 AM 30.9 °F 21.2 °F 21.0 °F 67% 29.95 in 10.0 mi East 12.7 mph 20.7 mph N/A   Overcast
9:53 AM 33.1 °F 24.9 °F 23.0 °F 66% 29.94 in 10.0 mi East 10.4 mph 19.6 mph N/A   Overcast
10:53 AM 33.1 °F 23.4 °F 21.9 °F 64% 29.92 in 10.0 mi East 13.8 mph 27.6 mph N/A   Overcast
11:51 AM 32.0 °F 19.5 °F 24.8 °F 75% 29.86 in 1.5 mi East 21.9 mph - 0.00 in Snow Light Snow
11:53 AM 32.0 °F 19.5 °F 24.1 °F 73% 29.89 in 1.2 mi East 21.9 mph - 0.00 in Snow Light Snow
12:07 PM 32.0 °F 21.6 °F 24.8 °F 75% 29.85 in 1.2 mi East 15.0 mph - 0.00 in Snow Light Snow
12:30 PM 30.2 °F 18.9 °F 26.6 °F 86% 29.84 in 0.8 mi East 16.1 mph - 0.00 in Snow Light Snow
12:45 PM 30.2 °F 19.3 °F 26.6 °F 86% 29.84 in 1.0 mi East 15.0 mph - 0.00 in Snow Light Snow
12:53 PM 30.9 °F 19.8 °F 26.1 °F 82% 29.86 in 1.8 mi East 16.1 mph - 0.00 in Snow Light Snow
1:15 PM 30.2 °F 18.1 °F 26.6 °F 86% 29.82 in 2.0 mi East 18.4 mph - 0.00 in Snow Light Snow
1:23 PM 30.2 °F 20.2 °F 26.6 °F 86% 29.81 in 1.8 mi East 12.7 mph 24.2 mph 0.00 in Snow Light Snow
1:53 PM 30.9 °F 19.4 °F 26.1 °F 82% 29.82 in 1.0 mi East 17.3 mph - 0.00 in Snow Light Snow
2:02 PM 30.2 °F 19.3 °F 26.6 °F 86% 29.79 in 0.5 mi East 15.0 mph - 0.00 in Snow Snow
2:18 PM 30.2 °F 21.3 °F 26.6 °F 86% 29.78 in 0.8 mi East 10.4 mph - 0.00 in Snow Light Snow
2:25 PM 30.2 °F 19.8 °F 26.6 °F 86% 29.78 in 0.5 mi ENE 13.8 mph - 0.00 in Fog , Snow Snow
2:33 PM 30.2 °F 20.8 °F 26.6 °F 86% 29.78 in 0.5 mi ENE 11.5 mph - 0.01 in Fog , Snow Snow
2:40 PM 30.2 °F 20.2 °F 26.6 °F 86% 29.77 in 0.5 mi ENE 12.7 mph - 0.01 in Fog , Snow Snow
2:51 PM 30.2 °F 19.8 °F 26.6 °F 86% 29.77 in 0.5 mi East 13.8 mph - 0.01 in Fog , Snow Snow
2:53 PM 30.0 °F 20.0 °F 26.1 °F 85% 29.79 in 0.5 mi ENE 12.7 mph - 0.01 in Fog , Snow Snow
3:09 PM 30.2 °F 20.2 °F 26.6 °F 86% 29.76 in 0.2 mi ENE 12.7 mph - 0.01 in Fog , Snow Snow
3:53 PM 28.9 °F 18.2 °F 26.1 °F 89% 29.78 in 0.5 mi ENE 13.8 mph - 0.02 in Fog , Snow Light Snow
3:57 PM 28.4 °F 17.0 °F 24.8 °F 86% 29.75 in 0.8 mi ENE 15.0 mph 20.7 mph 0.00 in Snow Light Snow
4:08 PM 28.4 °F 18.5 °F 24.8 °F 86% 29.74 in 1.0 mi ENE 11.5 mph 19.6 mph 0.01 in Snow Light Snow
4:15 PM 28.4 °F 18.5 °F 24.8 °F 86% 29.74 in 0.8 mi NE 11.5 mph - 0.01 in Snow Light Snow
4:25 PM 28.4 °F 18.5 °F 24.8 °F 86% 29.74 in 1.0 mi ENE 11.5 mph - 0.01 in Snow Light Snow
4:33 PM 28.4 °F 18.0 °F 24.8 °F 86% 29.74 in 0.8 mi ENE 12.7 mph 18.4 mph 0.01 in Snow Light Snow
4:36 PM 28.4 °F 19.7 °F 24.8 °F 86% 29.74 in 0.5 mi NE 9.2 mph 18.4 mph 0.01 in Fog , Snow Snow
4:51 PM 28.4 °F 19.1 °F 26.6 °F 93% 29.74 in 0.2 mi NE 10.4 mph - 0.03 in Fog , Snow Heavy Snow
4:53 PM 28.9 °F 19.8 °F 26.1 °F 89% 29.77 in 0.2 mi NE 10.4 mph - 0.03 in Fog , Snow Heavy Snow
5:53 PM 28.0 °F 17.5 °F 25.0 °F 88% 29.78 in 0.2 mi NE 12.7 mph - 0.04 in Fog , Snow Snow
6:51 PM 28.4 °F 16.6 °F 24.8 °F 86% 29.76 in 0.8 mi NE 16.1 mph - 0.03 in Snow Light Snow
6:53 PM 28.0 °F 16.5 °F 25.0 °F 88% 29.79 in 0.8 mi NE 15.0 mph - 0.03 in Snow Light Snow
7:07 PM 28.4 °F 17.0 °F 24.8 °F 86% 29.76 in 0.5 mi NNE 15.0 mph - 0.01 in Fog , Snow Snow
7:46 PM 28.4 °F 16.2 °F 26.6 °F 93% 29.75 in 0.8 mi NNE 17.3 mph - 0.02 in Snow Light Snow
7:53 PM 28.9 °F 16.5 °F 26.1 °F 89% 29.78 in 0.8 mi NNE 18.4 mph - 0.02 in Snow Light Snow
8:12 PM 28.4 °F 14.7 °F 26.6 °F 93% 29.75 in 0.8 mi NNE 21.9 mph 31.1 mph 0.00 in Snow Light Snow
8:53 PM 30.0 °F 17.2 °F 26.1 °F 85% 29.77 in 0.8 mi NNE 20.7 mph - 0.01 in Snow Light Snow
9:00 PM 30.2 °F 17.4 °F 26.6 °F 86% 29.74 in 0.8 mi NNE 20.7 mph 28.8 mph 0.00 in Snow Light Snow
9:41 PM 30.2 °F 18.5 °F 26.6 °F 86% 29.76 in 0.8 mi NNE 17.3 mph - 0.00 in Snow Light Snow
9:53 PM 30.0 °F 21.1 °F 27.0 °F 88% 29.79 in 0.8 mi North 10.4 mph - 0.01 in Snow Light Snow
10:51 PM 28.4 °F 16.2 °F 26.6 °F 93% 29.79 in 0.8 mi North 17.3 mph - 0.01 in Snow Light Snow
10:53 PM 28.9 °F 17.3 °F 25.0 °F 85% 29.82 in 0.8 mi North 16.1 mph - 0.01 in Snow Light Snow
11:05 PM 28.4 °F 16.6 °F 24.8 °F 86% 29.80 in 0.5 mi North 16.1 mph - 0.00 in Fog , Snow Snow
11:53 PM 27.0 °F 13.5 °F 24.1 °F 89% 29.85 in 0.5 mi North 19.6 mph 23.0 mph 0.02 in Fog , Snow Snow